Other Public Products
Issued by NWS Grand Forks, ND

Home | Current Version | Previous Version | Text Only | Print | Product List | Glossary Off
Versions: 1 2 3 4 5 6 7 8 9 10 11 12 13 14 15 16 17 18 19 20 21 22 23 24 25 26 27 28 29 30 31 32 33 34 35 36 37 38 39 40 41 42 43 44 45 46 47 48 49 50

000
FPUS83 KFGF 290231
OPUFGF
PRAIRIE TO PINES WEATHER ROUNDUP
NATIONAL WEATHER SERVICE EASTERN NORTH DAKOTA/GRAND FORKS ND
900 PM CDT MON JUL 28 2014

 **SATELLITE DATA USED TO AUGMENT SKY COVER AT AUTOMATED STATIONS**
 *****  WEATHER ACROSS EASTERN NORTH DAKOTA  *****

CITY           SKY/WX    TMP DP  RH WIND       PRES   REMARKS
GRAND FORKS    PTCLDY    66  60  81 N3        30.18S
GRAND FORKS AF CLEAR     65  59  79 N3        30.19F
GRAND CITY NWS   N/A     64 N/A N/A N2          N/A
BUXTON           N/A     69  58  69 N2          N/A
DEVILS LAKE    CLEAR     66  54  63 W6        30.20S
FARGO          CLEAR     68  55  63 W5        30.18S
WAHPETON ARPT  CLEAR     64  52  63 CALM      30.19S
$$

 *****  WEATHER ACROSS CENTRAL AND WESTERN NORTH DAKOTA  *****

CITY           SKY/WX    TMP DP  RH WIND       PRES   REMARKS
JAMESTOWN      CLEAR     64  54  69 NW5       30.21F
BISMARCK       CLEAR     69  53  56 E6        30.23S
MINOT          CLEAR     68  57  68 NE3       30.22S
MINOT AFB      CLEAR     69  57  66 SE3       30.21F
GARRISON         N/A     68  59  73 SE3       30.23S
WILLISTON      CLEAR     77  51  40 E7        30.20S
DICKINSON      CLEAR     67  56  67 E6        30.23S
HETTINGER      PTCLDY    69  52  54 E10       30.25S
$$

 *****  OTHER OBSERVATIONS NORTHEAST NORTH DAKOTA  *****

CITY           SKY/WX    TMP DP  RH WIND       PRES   REMARKS
WALHALLA         N/A     64  63  94 CALM        N/A
LANGDON        FAIR      63  57  82 CALM      30.21F
CAVALIER       FAIR      64  57  77 CALM      30.19S
GRAFTON        FAIR      66  55  68 NW5       30.18S
CANDO          FAIR      64  55  72 CALM      30.22F
FORT TOTTEN      N/A     63  54  72 CALM      29.95
ROLLA          FAIR      59  57  94 NW3       30.24S
RUGBY          FAIR      64  57  77 CALM      30.21F
 ***** THE ABOVE OBSERVATIONS ARE NON NWS ARE NOT QUALITY
        CONTROLLED AND MAY MIS-REPORT RAIN FOR SNOW...
$$

 *****  OTHER OBSERVATIONS SOUTHEAST NORTH DAKOTA *****

CITY           SKY/WX    TMP DP  RH WIND       PRES   REMARKS
COOPERSTOWN    NOT AVBL
VALLEY CITY    FAIR      59  55  88 W7        30.21S
OAKES          NOT AVBL
GWINNER        CLEAR     63  55  77 NW3       30.22S
SHEYENNE NWR     N/A     67  56  68 W2        29.95S
BUFFALO        NOT AVBL
WYNDMERE       NOT AVBL
 ***** THE ABOVE OBSERVATIONS ARE NON NWS ARE NOT QUALITY
       CONTROLLED AND MAY MIS-REPORT RAIN FOR SNOW...
$$

  *****  WEATHER ACROSS NORTHERN MINNESOTA  *****

CITY           SKY/WX    TMP DP  RH WIND       PRES   REMARKS
FLAG ISLAND    CLEAR     72  57  60 NW12      30.13R
WARROAD        MOCLDY    70  57  64 W6        30.16R
ROSEAU         CLEAR     66  57  72 W7        30.17R
HALLOCK        CLEAR     66  59  77 NW3       30.18S
THF RVR FALLS  CLEAR     64  55  72 NW6       30.18S
HALSTAD          N/A     64  57  78 N3          N/A
FOSSTON        CLEAR     61  52  72 CALM      30.20R
BAUDETTE       CLEAR     68  57  68 CALM      30.15S
WASKISH        CLEAR     64  55  72 CALM      30.15S
CROOKSTON      CLEAR     64  59  82 NW6       30.19S
$$
  *****  WEATHER ACROSS CENTRAL AND WEST MINNESOTA  *****

CITY           SKY/WX    TMP DP  RH WIND       PRES   REMARKS
BEMIDJI        CLEAR     62  54  75 W5        30.17S
PARK RAPIDS    CLEAR     61  54  77 NW6       30.18R
WADENA         CLEAR     61  55  82 NW3       30.18S
DETROIT LAKES  CLEAR     64  55  72 NW5       30.20S
MOORHEAD       CLEAR     66  61  82 CALM      30.19S
FERGUS FALLS   CLEAR     61  52  72 NW7       30.19R
ELBOW LAKE     FAIR      62  54  73 NW3       30.19S
MORRIS MN      CLEAR     61  55  82 NW5       30.19R
STAPLES        PTCLDY    61  55  82 NW5       30.17S
WHEATON        LGT RAIN  61  54  77 W3        30.21S
$$
  *****  WEATHER ELSEWHERE ACROSS MINNESOTA  *****

CITY           SKY/WX    TMP DP  RH WIND       PRES   REMARKS
DULUTH         PTCLDY    65  54  67 NW6       30.10S
INTRNTL FALLS  CLEAR     64  57  78 W5        30.12S
ELY            CLEAR     63  55  77 W3        30.10S
CLOQUET        CLEAR     64  54  68 W5        30.12R
BRAINERD       CLEAR     67  54  63 NW6       30.16R
HIBBING        PTCLDY    65  54  67 NW5       30.12S
ALEXANDRIA     CLEAR     67  53  61 NW7       30.20R
SAINT CLOUD    PTCLDY    68  55  63 NW5       30.15R
MINNEAPOLIS    PTCLDY    69  54  58 NW6       30.13S
$$

  *****  WEATHER ACROSS SOUTH DAKOTA  *****

CITY           SKY/WX    TMP DP  RH WIND       PRES   REMARKS
SIOUX FALLS    PTCLDY    65  54  67 N3        30.21R
BROOKINGS      NOT AVBL
WATERTOWN      CLEAR     62  52  69 N3        30.22S
HURON          CLEAR     67  52  58 NE5       30.20F
SISSETON         N/A     63  57  81 NW3       30.20S
ABERDEEN       CLEAR     65  54  67 E3        30.22S
MITCHELL       CLEAR     68  54  60 NE3       30.21S
PIERRE         CLEAR     70  55  59 NE8       30.21R
MOBRIDGE       CLEAR     67  53  61 NE7       30.21S
RAPID CITY     PTCLDY    70  54  56 E8        30.23S
$$

  *****  SOME WEATHER IN NEARBY STATES *****

CITY           SKY/WX    TMP DP  RH WIND       PRES   REMARKS
GLASGOW MT     CLEAR     83  46  27 E9        30.17S
GREAT FALLS MT MOCLDY    84  42  22 N7        30.12S
CHEYENNE WY    LGT RAIN  65  58  78 SE12G23   30.33R
SCOTTSBLUFF NE CLEAR     79  61  53 E8        30.19R
OMAHA NE       PTCLDY    69  56  62 NW6       30.17S
DES MOINES IA  PTCLDY    70  58  65 CALM      30.15S
DAVENPORT IA   CLEAR     61  54  77 NW3       30.12S
CHICAGO IL     PTCLDY    64  48  56 E5        30.07R
EAU CLAIRE WI  CLEAR     66  54  65 W3        30.10S
LA CROSSE WI   CLEAR     68  54  60 NW6       30.10S
$$

  *****  SOME NATIONAL WEATHER *****

CITY           SKY/WX    TMP DP  RH WIND       PRES   REMARKS
LA GUARDIA NY  PTCLDY    72  60  66 NW20G26   29.66R
RALEIGH NC     PTCLDY    77  56  48 VRB3      29.87R
ATLANTA GA     CLEAR     78  59  51 N7        29.97R
NEW ORLEANS LA CLOUDY    84  75  74 W7        29.99R HX  92
OKLAHOMA CITY  MOCLDY    80  59  48 E6        30.15R
ALBUQUERQUE NM LGT RAIN  71  62  73 E15       30.30R
SALT LAKE CITY CLOUDY    68  63  84 S10       30.20F
LOS ANGELES CA MOSUNNY   72  65  78 W16       29.99S
BOISE ID       MOSUNNY   97  43  15 SW8       30.00R HX  93
SEATTLE WA     MOSUNNY   86  53  32 N9        30.07F
$$

*** WEATHER ACROSS MANITOBA...SASKATCHEWAN AND ONTARIO ***
                ***ONTARIO***

CITY           SKY/WX    TMP DP  RH WIND       PRES   REMARKS
GERALDTON      MOCLDY    57  55  94 NW3       29.97S
THUNDER BAY    LGT RAIN  59  55  88 NW10G21   30.05R
SIOUX LOOKOUT  TSTM      61  55  82 E9G18     30.11R
TORONTO        PTCLDY    61  48  63 NW12      29.88R
BIG TROUT LK   CLOUDY    61  59  94 N3        30.02R
PICKLE LAKE    TSTM      61  59  94 VRB2      30.03S
DRYDEN         MOCLDY    64  55  72 S5        30.11R
KENORA         TSTM      63  54  72 NW12G23   30.17R
$$
                *** MANITOBA***

CITY           SKY/WX    TMP DP  RH WIND       PRES   REMARKS
BRANDON        CLEAR     66  55  68 NW5       30.21F
DAUPHIN        CLEAR     68  57  68 W2        30.18F
ISLAND LAKE    MOCLDY    72  55  56 NW5       30.07S
PILOT MOUND      N/A     66  54  63 W3          N/A
THE PAS        PTCLDY    70  55  60 CALM      30.16F
THOMPSON       MOCLDY    73  52  46 W5        30.09S
WINNIPEG       PTCLDY    63  57  82 W6        30.18S
LYNN LAKE      CLEAR     77  54  44 NW5       30.11F
CHURCHILL      FOG       50  50 100 SE12      30.13S VSB 1/2
GILLAM         CLOUDY    68  59  73 E8        30.07R
$$
                ***SASKATCHEWAN***

CITY           SKY/WX    TMP DP  RH WIND       PRES   REMARKS
ESTEVAN        MOCLDY    70  61  73 SE3       30.23S
KINDERSLEY     PTCLDY    72  63  73 E9        30.20S
LLOYDMINSTER   MOSUNNY   75  61  60 E6        30.20S
PRINCE ALBERT  PTCLDY    72  63  73 SE5       30.19
REGINA         PTCLDY    73  59  60 N5        30.21F



USA.gov is the U.S. government's official web portal to all federal, state and local government web resources and services.